Location: Bratislava
(0.0000°N, 17.1167°E)
Time: 04:18:00
(UTC+01:00)

Cosmos 2098 Rocket - Pass Details

Date: 24 January 2021
Orbit: 366 x 1182 km, 82.9° (Epoch: 04 March)

Event Time Altitude Azimuth Distance (km) Brightness Sun altitude
Rises 18:31:04 0° 187° (S) 3,405 7.2 -6.5°
Reaches altitude 10° 18:33:18 10° 189° (S) 2,577 6.6 -7.0°
Maximum altitude 18:39:19 75° 274° (W) 1,068 4.4 -8.4°
Drops below altitude 10° 18:46:25 10° 358° (N) 3,019 6.4 -10.1°
Sets 18:49:14 0° 360° (N) 4,024 7.0 -10.7°
